THOR ABLESTAR R/B, 1428

Orbit data source: Space-Track

THOR ABLESTAR R/B, 1428 is space debris in LEO originally from a launch on Thu, 24 Jun 1965 UTC launched from the Air Force Western Test Range (AFWTR). Debris objects in space refer to the collection of defunct objects orbiting the Earth. Examples of debris include non-operational satellites, rocket bodies, and fragments generated from explosions, collisions, or faulty payload assembly.

Loading next visibility...
Identifier
1428, 1965-048B
Orbit
LEO
Country
Flag of USUS
Related business
Manufacturer
Aerojet
Mission
Spacecraft
Bus & Motor
ABLESTAR, Unknown motor
Mass
~600 kg wet, 600 kg dry
Launch date (UTC)
1965-06-24 (61 years ago)
Launch vehicle
Unknown
Launch site
Air Force Western Test Range (AFWTR)
Object type
Payload
Rocket body
Debris
Shape & HBR
Unknown
Radar Cross Section
Large (>1 m²)

Expand to show TLE details & history
Last TLE update: 14 hours ago

TLE from 14 hours ago
0 THOR ABLESTAR R/B
1  1428U 65048B   26125.47980925  .00000050  00000-0  61143-4 0  9992
2  1428  89.8724 285.5477 0055250 305.1466 117.8657 13.52684966  2855
Epoch: 2026-05-05T11:30Z
TLE epoch observation values (Epoch: 2026-05-05T11:30:55.519Z)
Latitude
63.65405°
Longitude
-110.28134°
Altitude
1,092.833 km
Speed
7.302 km/s
True Right ascension
19h 03m 12s
True Declination
63° 31' 23"
Sunlit
Object was in daylight at epoch
Visualization orbit readout
Latitude
Unknown
Longitude
Unknown
Altitude
Unknown
Speed
Unknown
Apparent Right ascension
Unknown
Apparent Declination
Unknown
Sunlit
N/A
Visualization observer readout
Local Sidereal Time
09:09:48
Azimuth
Unknown
Elevation
Unknown
Doppler factor
Unknown
Orbital elements
Apogee altitude
1,100.535 km
Perigee altitude
1,018.349 km
Semi-major axis
7,437.579 km
Eccentricity
0.00553
Inclination
89.8724°
RAAN
285.5477°
Arg. of periapsis
305.1466°
True anomaly
118.4236°
Mean anomaly
117.8657°
Eccentric anomaly
118.14483°
Mean motion
3.38373 °/min
Orbital period
106.39 mins
BSTAR
0.000061143
Loading maneuver chart data...
Computing Atmospheric mass density...

Documentation

Showing up to 5 results
|